TimeEDT,TemperatureF,Dew PointF,Humidity,Sea Level PressureIn,VisibilityMPH,Wind Direction,Wind SpeedMPH,Gust SpeedMPH,PrecipitationIn,Events,Conditions,WindDirDegrees,DateUTC
12:15 AM,43.9,35.2,72,29.93,10.0,Calm,Calm,-,N/A,,Mostly Cloudy,0,2013-03-31 04:15:00
12:35 AM,43.7,36.3,75,29.92,10.0,Calm,Calm,-,N/A,,Scattered Clouds,0,2013-03-31 04:35:00
12:55 AM,44.2,35.1,70,29.91,10.0,Calm,Calm,-,N/A,,Scattered Clouds,0,2013-03-31 04:55:00
1:15 AM,43.7,34.9,71,29.90,10.0,Calm,Calm,-,N/A,,Scattered Clouds,0,2013-03-31 05:15:00
1:35 AM,43.3,35.6,74,29.90,10.0,Calm,Calm,-,N/A,,Scattered Clouds,0,2013-03-31 05:35:00
1:55 AM,43.2,34.7,72,29.89,10.0,SW,3.5,-,N/A,,Mostly Cloudy,230,2013-03-31 05:55:00
2:15 AM,45.1,34.2,65,29.89,10.0,WSW,4.6,-,N/A,,Scattered Clouds,240,2013-03-31 06:15:00
2:35 AM,44.6,34.9,69,29.88,10.0,SW,4.6,-,N/A,,Mostly Cloudy,230,2013-03-31 06:35:00
2:55 AM,45.5,35.2,67,29.87,10.0,WSW,4.6,-,N/A,,Overcast,240,2013-03-31 06:55:00
3:15 AM,46.4,35.8,67,29.87,10.0,WSW,4.6,-,N/A,,Overcast,240,2013-03-31 07:15:00
3:35 AM,46.9,36.5,67,29.86,10.0,West,5.8,-,N/A,,Light Drizzle,260,2013-03-31 07:35:00
3:55 AM,46.6,37.2,70,29.86,10.0,WNW,6.9,-,N/A,Rain,Rain,290,2013-03-31 07:55:00
4:15 AM,44.8,38.3,78,29.84,10.0,Calm,Calm,-,N/A,Rain,Light Rain,0,2013-03-31 08:15:00
4:35 AM,43.9,37.4,78,29.84,10.0,WSW,4.6,-,N/A,,Scattered Clouds,240,2013-03-31 08:35:00
4:55 AM,43.3,37.6,80,29.83,10.0,SSW,5.8,-,N/A,,Mostly Cloudy,200,2013-03-31 08:55:00
5:15 AM,43.9,38.1,80,29.82,10.0,SW,4.6,-,N/A,,Overcast,230,2013-03-31 09:15:00
5:35 AM,45.5,38.5,76,29.83,10.0,West,6.9,-,N/A,,Overcast,260,2013-03-31 09:35:00
5:55 AM,45.7,38.5,76,29.82,10.0,WSW,6.9,-,N/A,,Overcast,250,2013-03-31 09:55:00
6:15 AM,45.3,38.7,78,29.82,10.0,WSW,5.8,-,N/A,,Overcast,250,2013-03-31 10:15:00
6:35 AM,45.0,38.8,79,29.83,10.0,WSW,4.6,-,N/A,,Overcast,250,2013-03-31 10:35:00
6:55 AM,45.0,39.4,81,29.82,10.0,West,5.8,-,N/A,,Overcast,260,2013-03-31 10:55:00
7:15 AM,45.0,39.6,81,29.82,10.0,WSW,5.8,-,N/A,,Overcast,250,2013-03-31 11:15:00
7:35 AM,45.0,40.1,83,29.83,7.0,West,6.9,-,N/A,,Overcast,260,2013-03-31 11:35:00
7:55 AM,45.0,40.3,84,29.83,7.0,WSW,5.8,-,N/A,,Overcast,250,2013-03-31 11:55:00
8:15 AM,45.1,40.6,84,29.82,5.0,WSW,5.8,-,N/A,,Drizzle,250,2013-03-31 12:15:00
8:35 AM,45.1,40.5,84,29.82,5.0,West,8.1,-,N/A,,Overcast,260,2013-03-31 12:35:00
8:55 AM,45.1,41.0,85,29.82,5.0,WSW,5.8,-,N/A,,Overcast,250,2013-03-31 12:55:00
9:15 AM,45.0,41.0,86,29.82,2.0,WSW,8.1,-,N/A,,Overcast,250,2013-03-31 13:15:00
9:35 AM,45.0,41.4,87,29.83,1.2,WSW,9.2,-,N/A,,Overcast,250,2013-03-31 13:35:00
9:55 AM,45.0,41.7,88,29.83,2.0,WSW,8.1,-,N/A,,Overcast,250,2013-03-31 13:55:00
10:15 AM,45.1,41.9,88,29.83,2.0,West,6.9,-,N/A,,Overcast,260,2013-03-31 14:15:00
10:55 AM,45.9,42.3,87,29.83,4.0,West,9.2,-,N/A,,Overcast,270,2013-03-31 14:55:00
11:15 AM,46.4,42.1,85,29.84,4.0,West,11.5,-,N/A,,Overcast,260,2013-03-31 15:15:00
11:35 AM,47.3,42.4,83,29.83,5.0,West,8.1,-,N/A,,Haze,270,2013-03-31 15:35:00
11:55 AM,48.7,42.4,79,29.83,7.0,West,9.2,17.3,N/A,,Overcast,280,2013-03-31 15:55:00
12:15 PM,50.0,41.0,71,29.83,10.0,West,9.2,-,N/A,,Overcast,280,2013-03-31 16:15:00
12:35 PM,51.6,40.5,66,29.83,10.0,WNW,9.2,12.7,N/A,,Mostly Cloudy,290,2013-03-31 16:35:00
12:55 PM,52.0,40.8,66,29.83,10.0,West,11.5,19.6,N/A,,Scattered Clouds,270,2013-03-31 16:55:00
1:15 PM,53.6,40.3,61,29.83,10.0,WSW,13.8,19.6,N/A,,Scattered Clouds,250,2013-03-31 17:15:00
1:35 PM,54.3,40.3,59,29.82,10.0,West,15.0,19.6,N/A,,Scattered Clouds,260,2013-03-31 17:35:00
1:55 PM,54.9,39.2,56,29.81,10.0,West,11.5,18.4,N/A,,Scattered Clouds,270,2013-03-31 17:55:00
2:15 PM,55.9,37.6,50,29.80,10.0,West,13.8,17.3,N/A,,Clear,270,2013-03-31 18:15:00
2:35 PM,57.0,37.4,48,29.79,10.0,WNW,12.7,19.6,N/A,,Clear,290,2013-03-31 18:35:00
2:55 PM,57.7,37.8,47,29.79,10.0,West,13.8,19.6,N/A,,Scattered Clouds,270,2013-03-31 18:55:00
3:15 PM,58.1,38.5,48,29.78,10.0,West,9.2,17.3,N/A,,Scattered Clouds,280,2013-03-31 19:15:00
3:35 PM,58.6,37.6,46,29.78,10.0,West,15.0,19.6,N/A,,Scattered Clouds,270,2013-03-31 19:35:00
3:55 PM,59.2,36.3,43,29.78,10.0,WSW,12.7,20.7,N/A,,Scattered Clouds,250,2013-03-31 19:55:00
4:15 PM,59.7,36.0,41,29.78,10.0,WSW,13.8,-,N/A,,Scattered Clouds,250,2013-03-31 20:15:00
4:35 PM,60.1,34.3,38,29.78,10.0,West,13.8,20.7,N/A,,Scattered Clouds,260,2013-03-31 20:35:00
4:55 PM,59.7,35.8,41,29.77,10.0,West,11.5,19.6,N/A,,Scattered Clouds,270,2013-03-31 20:55:00
5:15 PM,59.4,35.2,40,29.76,10.0,West,12.7,24.2,N/A,,Scattered Clouds,270,2013-03-31 21:15:00
5:35 PM,58.5,36.3,44,29.76,10.0,WSW,15.0,18.4,N/A,,Mostly Cloudy,250,2013-03-31 21:35:00
5:55 PM,58.3,35.6,43,29.76,10.0,West,13.8,21.9,N/A,,Overcast,270,2013-03-31 21:55:00
6:15 PM,57.9,36.7,45,29.76,10.0,WSW,13.8,-,N/A,,Scattered Clouds,240,2013-03-31 22:15:00
6:35 PM,57.2,36.7,46,29.76,10.0,West,16.1,21.9,N/A,,Scattered Clouds,260,2013-03-31 22:35:00
6:55 PM,54.5,39.9,58,29.76,10.0,West,10.4,-,N/A,Rain,Light Rain,270,2013-03-31 22:55:00
7:15 PM,51.8,41.5,68,29.80,7.0,WNW,15.0,27.6,0.05,Rain,Heavy Rain,300,2013-03-31 23:15:00
7:35 PM,49.1,42.1,77,29.81,4.0,West,13.8,19.6,0.07,Rain,Rain,270,2013-03-31 23:35:00
7:55 PM,50.0,41.0,71,29.79,10.0,West,10.4,-,0.08,,Overcast,270,2013-03-31 23:55:00
8:15 PM,49.3,41.9,76,29.80,10.0,West,11.5,23.0,N/A,Rain,Light Rain,280,2013-04-01 00:15:00
8:35 PM,49.3,41.4,74,29.79,10.0,WSW,11.5,-,N/A,Rain,Light Rain,250,2013-04-01 00:35:00
8:55 PM,49.1,40.1,71,29.79,10.0,WSW,10.4,-,N/A,,Scattered Clouds,250,2013-04-01 00:55:00
9:15 PM,49.1,40.3,72,29.80,10.0,WSW,10.4,-,N/A,,Mostly Cloudy,240,2013-04-01 01:15:00
9:35 PM,48.2,40.5,75,29.81,10.0,WSW,8.1,-,N/A,,Mostly Cloudy,240,2013-04-01 01:35:00
9:55 PM,46.8,40.6,79,29.81,10.0,WSW,8.1,-,N/A,,Scattered Clouds,240,2013-04-01 01:55:00
10:15 PM,46.8,40.5,79,29.82,10.0,West,8.1,-,N/A,,Scattered Clouds,260,2013-04-01 02:15:00
10:35 PM,46.4,40.3,79,29.83,10.0,West,6.9,-,N/A,,Clear,260,2013-04-01 02:35:00
10:55 PM,46.8,40.3,78,29.84,10.0,WNW,6.9,-,N/A,,Mostly Cloudy,290,2013-04-01 02:55:00
11:15 PM,46.6,38.7,74,29.84,10.0,WNW,5.8,-,N/A,,Mostly Cloudy,300,2013-04-01 03:15:00
11:35 PM,45.5,36.7,71,29.84,10.0,WNW,5.8,-,N/A,,Scattered Clouds,300,2013-04-01 03:35:00